This demonstration page uses our WeatherBlox Daily Observations layout. Learn more.

Left ArrowRight Arrow

Hourly Observations for January 23, 2022

Temp ( °F °C ) Dew Point ( °F °C ) Humidity (%) Winds ( mph kmh ) Pressure ( in mb ) Visibility ( mi km ) Precip ( " mm )
12:56 am 00:56 Clear 39 3.9 24 -4.4 55 55 W 14 22 30.09 1019 10 16 0.00 0.00
1:56 am 01:56 Clear 38 3.3 25 -3.9 60 60 WNW 15 24 30.09 1019 10 16 0.00 0.00
2:56 am 02:56 Mostly Clear 35 1.7 25 -3.9 67 67 WNW 13 20 30.11 1020 10 16 0.00 0.00
3:56 am 03:56 Mostly Cloudy 33 0.6 24 -4.4 70 70 NW 8 13 30.12 1020 10 16 0.00 0.00
4:56 am 04:56 Partly Cloudy 30 -1.1 24 -4.4 79 79 NW 8 13 30.13 1020 10 16 0.00 0.00
5:44 am 05:44 Mostly Cloudy 30 -1 27 -3 86 86 NW 6 9 30.20 1023 10 16 0.00 0.00
5:56 am 05:56 Cloudy 32 0 26 -3.3 79 79 WNW 6 9 30.14 1021 10 16 0.00 0.00
6:32 am 06:32 Cloudy 32 0 27 -3 80 80 W 3 6 30.20 1023 10 16 0.00 0.00
6:56 am 06:56 Cloudy 31 -0.6 27 -2.8 85 85 NW 5 7 30.14 1021 10 16 0.00 0.00
7:56 am 07:56 Cloudy 29 -1.7 25 -3.9 85 85 W 5 7 30.17 1022 10 16 0.00 0.00
8:41 am 08:41 Cloudy 32 0 27 -3 80 80 WSW 7 11 30.21 1023 10 16 0.00 0.00
8:56 am 08:56 Cloudy 32 0 27 -2.8 82 82 SW 8 13 30.16 1021 10 16 0.00 0.00
9:56 am 09:56 Cloudy 34 1.1 28 -2.2 79 79 SW 8 13 30.14 1021 10 16 0.00 0.00
10:15 am 10:15 Cloudy 36 2 28 -2 75 75 WSW 8 13 30.17 1022 10 16 0.00 0.00
10:56 am 10:56 Mostly Sunny 39 3.9 30 -1.1 70 70 SSW 10 17 30.10 1019 10 16 0.00 0.00
11:56 am 11:56 Mostly Cloudy 44 6.7 28 -2.2 53 53 WSW 12 19 30.05 1018 10 16 0.00 0.00
12:56 pm 12:56 Cloudy 49 9.4 29 -1.7 46 46 W 13 20 30.00 1016 10 16 0.00 0.00
1:56 pm 13:56 Cloudy 52 11.1 28 -2.2 40 40 WSW 16 26 29.95 1014 10 16 0.00 0.00
2:56 pm 14:56 Cloudy 54 12.2 27 -2.8 35 35 W 14 22 29.91 1013 10 16 0.00 0.00
3:56 pm 15:56 Cloudy 55 12.8 25 -3.9 31 31 W 15 24 29.89 1012 10 16 0.00 0.00
4:56 pm 16:56 Cloudy 54 12.2 25 -3.9 33 33 W 12 19 29.87 1012 10 16 0.00 0.00
5:56 pm 17:56 Cloudy 52 11.1 25 -3.9 35 35 W 10 17 29.86 1011 10 16 0.00 0.00
6:56 pm 18:56 Cloudy 50 10 24 -4.4 36 36 W 12 19 29.85 1011 10 16 0.00 0.00
7:56 pm 19:56 Partly Cloudy 50 10 24 -4.4 36 36 W 12 19 29.84 1011 10 16 0.00 0.00
8:56 pm 20:56 Mostly Cloudy 46 7.8 24 -4.4 42 42 W 9 15 29.84 1011 10 16 0.00 0.00
9:56 pm 21:56 Cloudy 49 9.4 25 -3.9 39 39 WNW 8 13 29.81 1010 10 16 0.00 0.00
10:56 pm 22:56 Cloudy 47 8.3 25 -3.9 42 42 NW 10 17 29.80 1009 10 16 0.00 0.00
11:56 pm 23:56 Cloudy 47 8.3 25 -3.9 42 42 WNW 13 20 29.79 1009 10 16 0.00 0.00

Powered by AerisWeather